Scappoose, OR

11:42 AM PST on December 05, 2016 (GMT -0800)
Scappoose Industrial

Weather History for KSPB - July, 2013

Change the Weather History Date:

Friday, July 19, 2013

  Actual Average Record
Temperature  
Mean Temperature 68 °F -  
Max Temperature 83 °F - 97 °F (2015)
Min Temperature 55 °F - 48 °F (2006)
Degree Days  
Heating Degree Days 0    
Month to date heating degree days 14  
Since 1 June heating degree days 116  
Since 1 July heating degree days 14  
Cooling Degree Days 4    
Month to date cooling degree days 87  
Year to date cooling degree days 141  
Since 1 June cooling degree days 133  
Growing Degree Days 18 (Base 50)    
Moisture  
Dew Point 54 °F    
Average Humidity 65    
Maximum Humidity 86    
Minimum Humidity 43    
Precipitation  
Precipitation 0.00 in - 0.03 in (2012)
Month to date precipitation T  
Year to date precipitation 13.89  
Sea Level Pressure  
Sea Level Pressure 30.09 in    
Wind  
Wind Speed 10 mph (North)    
Max Wind Speed 17 mph    
Max Gust Speed 24 mph    
Visibility 10 miles    
Events      
T = Trace of Precipitation, MM = Missing Value Source: NWS Daily Summary

Daily Weather History Graph

Daily Weather History Graph

Search for Another Location

Airport or City:

Trip Planner

Search our weather history database for the weather conditions in past years. The results will help you decide how hot, cold, wet, or windy it might be!

Date:

Astronomy

Jul. 19, 2013 Rise Set
Actual Time 5:40 AM PDT 8:54 PM PDT
Civil Twilight 5:04 AM PDT 9:30 PM PDT
Nautical Twilight 4:17 AM PDT 10:17 PM PDT
Astronomical Twilight 3:18 AM PDT 11:14 PM PDT
Moon 6:02 PM PDT (7/19) 2:27 AM PDT (7/19)
Length of Visible Light 16h 26m
Length of Day
15h 13m
Waxing Gibbous, 87% of the Moon is Illuminated
Jul 19
Waxing Gibbous
Jul 22
Full
Jul 29
Last Quarter
Aug 6
New
Aug 14
First Quarter

Hourly Weather History & Observations

Time (PDT) Temp. Heat Index Dew Point Humidity Pressure Visibility Wind Dir Wind Speed Gust Speed Precip Events Conditions
12:53 AM 62.1 °F - 53.1 °F 72% 30.11 in 10.0 mi North 8.1 mph - N/A   Clear
1:53 AM 61.0 °F - 52.0 °F 72% 30.12 in 10.0 mi NNW 10.4 mph - N/A   Clear
2:53 AM 57.9 °F - 51.1 °F 78% 30.12 in 10.0 mi NNW 8.1 mph - N/A   Clear
3:53 AM 57.0 °F - 51.1 °F 81% 30.13 in 10.0 mi North 6.9 mph - N/A   Clear
4:53 AM 55.9 °F - 51.1 °F 84% 30.13 in 10.0 mi North 8.1 mph - N/A   Clear
5:53 AM 55.9 °F - 51.1 °F 84% 30.14 in 10.0 mi NNW 5.8 mph - N/A   Mostly Cloudy
6:07 AM 57.2 °F - 51.8 °F 82% 30.14 in 10.0 mi North 6.9 mph - N/A   Overcast
6:53 AM 57.9 °F - 52.0 °F 81% 30.15 in 10.0 mi NNW 5.8 mph - N/A   Overcast
7:33 AM 59.0 °F - 53.6 °F 82% 30.15 in 10.0 mi North 6.9 mph - N/A   Overcast
7:53 AM 60.1 °F - 53.1 °F 78% 30.15 in 10.0 mi North 8.1 mph - N/A   Overcast
8:53 AM 61.0 °F - 53.1 °F 75% 30.14 in 10.0 mi North 9.2 mph - N/A   Overcast
9:53 AM 64.0 °F - 54.0 °F 70% 30.14 in 10.0 mi NNE 10.4 mph - N/A   Scattered Clouds
10:53 AM 66.0 °F - 54.0 °F 65% 30.13 in 10.0 mi NNE 11.5 mph 19.6 mph N/A   Clear
11:53 AM 69.1 °F - 55.0 °F 61% 30.12 in 10.0 mi NNE 12.7 mph - N/A   Clear
12:53 PM 72.0 °F - 57.0 °F 59% 30.09 in 10.0 mi NNE 11.5 mph 18.4 mph N/A   Clear
1:53 PM 75.9 °F - 57.9 °F 54% 30.07 in 10.0 mi NNE 12.7 mph 21.9 mph N/A   Clear
2:53 PM 80.1 °F 80.4 °F 57.0 °F 45% 30.05 in 10.0 mi North 15.0 mph 21.9 mph N/A   Clear
3:53 PM 81.0 °F 81.0 °F 57.0 °F 44% 30.04 in 10.0 mi NNW 10.4 mph 19.6 mph N/A   Clear
4:53 PM 82.0 °F 82.0 °F 57.9 °F 44% 30.02 in 10.0 mi NNW 12.7 mph 19.6 mph N/A   Clear
5:53 PM 82.0 °F 82.0 °F 57.9 °F 44% 30.00 in 10.0 mi NNW 12.7 mph 20.7 mph N/A   Clear
6:53 PM 81.0 °F 81.0 °F 57.0 °F 44% 30.00 in 10.0 mi NNW 10.4 mph - N/A   Clear
7:53 PM 73.9 °F - 57.0 °F 55% 30.01 in 10.0 mi WNW 8.1 mph - N/A   Clear
8:53 PM 69.1 °F - 55.0 °F 61% 30.02 in 10.0 mi NW 6.9 mph - N/A   Clear
9:53 PM 64.9 °F - 54.0 °F 68% 30.04 in 10.0 mi NW 8.1 mph - N/A   Clear
10:53 PM 62.1 °F - 52.0 °F 70% 30.05 in 10.0 mi North 8.1 mph - N/A   Clear
11:53 PM 60.1 °F - 52.0 °F 75% 30.04 in 10.0 mi NNW 11.5 mph - N/A   Clear